Location: Newark
(48.8833°N, 0.9236°W)
Time: 06:29:57
(UTC+00:00)

Vanguard 2 - Visible Passes

Search period start: 14 November 2019 00:00
Search period end: 24 November 2019 00:00
Orbit: 554 x 2937 km, 32.9° (Epoch: 13 November)

Date Brightness Start Highest point End Pass type
(mag) Time Alt. Az. Time Alt. Az. Time Alt. Az.
19 Nov 11.8 06:25:07 10° SSE 06:26:06 10° SSE 06:27:03 10° SSE visible
20 Nov 11.6 06:38:24 10° S 06:43:50 14° SSE 06:48:17 10° SE visible
22 Nov 11.8 05:06:00 10° S 05:10:18 12° SSE 05:14:07 10° SE visible
23 Nov 11.6 05:20:19 10° S 05:27:59 17° SSE 05:34:10 10° ESE visible
